Regional Weather Roundup
Issued by NWS

Home | Current Version | Previous Version | Graphics & Text | Print | Product List | Glossary Off
Versions: 1 2 3 4 5 6 7 8 9 10 11 12 13 14 15 16 17 18 19 20 21 22 23 24 25 26 27 28 29 30 31 32 33 34 35 36 37 38 39 40 41 42 43 44 45 46 47 48 49 50

601
ASUS43 KIND 261609
RWRIN

WEATHER ROUNDUP FOR INDIANA
NATIONAL WEATHER SERVICE INDIANAPOLIS IN
1200 PM EDT TUE SEP 26 2017

NOTE: "FAIR" INDICATES FEW OR NO CLOUDS BELOW 12,000 FEET WITH NO
SIGNIFICANT WEATHER AND/OR OBSTRUCTIONS TO VISIBILITY.

* - STATION DOES NOT REPORT WEATHER SUCH AS PRECIPITATION OR FOG.

+ - STATION NOT QUALITY CONTROLLED BY THE NATIONAL WEATHER SERVICE.
    USE DATA WITH CAUTION...ESPECIALLY DEWPOINT AND RELATIVE
    HUMIDITY OBSERVATIONS.

INZ001>003-010>013-019-020-261700-
NORTHWEST INDIANA

CITY           SKY/WX    TMP DP  RH WIND       PRES   REMARKS
GARY /AIRPORT/ MOSUNNY   88  59  37 S7        29.98S
KNOX *+        SUNNY     82  63  51 SW5       30.00S
LA PORTE +     SUNNY     83  65  53 SW5       30.00F
MICHIGAN CITY+ SUNNY     82  64  54 SW7       29.99S
MONTICELLO +   SUNNY     85  62  47 S6        30.00F
RENSSELAER +   SUNNY     86  48  26 SW10      30.00S
VALPARAISO     SUNNY     86  64  47 SW10      30.00S

$$

LMZ046-743>745-261700-
SOUTHERN LAKE MICHIGAN

STATION/POSITION TIME  TEMP    WIND        PRES    WAVE
                       AIR SEA DIR/SP/G            HT
                 (UTC) (F)     (DEG/KT/KT) (MB)    (FT)
BURNS HARBOR     1540   81     230/  9/ 12 1015.6S
MICHIGAN CITY    1540   80     190/  6/  7   N/A
5NW MICH CITY    1600   76 72  210/  6/  6   N/A     0

$$

INZ004-005-014>016-021>024-261700-
NORTH CENTRAL INDIANA

CITY           SKY/WX    TMP DP  RH WIND       PRES   REMARKS
ELKHART        SUNNY     81  64  57 S6        30.00S
GOSHEN         SUNNY     82  63  52 SW7       30.01S
LOGANSPORT +   SUNNY     84  63  48 SW6       30.02F
PERU/GRISSOM   SUNNY     86  64  48 VRB5      29.98F
SOUTH BEND     SUNNY     82  65  56 S7        30.00S
WARSAW +       SUNNY     81  64  57 CALM      30.02S

$$

INZ006>009-017-018-025>027-261700-
NORTHEAST INDIANA

CITY           SKY/WX    TMP DP  RH WIND       PRES   REMARKS
AUBURN +       SUNNY     82  64  54 SW5       30.03S
FORT WAYNE     SUNNY     84  65  52 S5        30.03S
HUNTINGTON +   SUNNY     85  64  48 SW6       30.02S
KENDALLVILLE + SUNNY     82  66  58 S5        30.03S

$$

INZ028-029-035-036-043>045-051>053-261700-
WEST CENTRAL INDIANA

CITY           SKY/WX    TMP DP  RH WIND       PRES   REMARKS
CRAWFORDSVL +  SUNNY     84  63  48 S7        30.03S
GREENCASTLE +  SUNNY     82  64  54 S3        30.04S
LAFAYETTE      SUNNY     84  65  52 S3        30.00F
TERRE HAUTE    SUNNY     85  62  46 VRB5      30.02S

$$

INZ030>032-037>040-046>048-054>057-064-065-261700-
CENTRAL INDIANA

CITY           SKY/WX    TMP DP  RH WIND       PRES   REMARKS
ANDERSON       SUNNY     82  64  54 CALM      30.04
CP ATTERBURY + SUNNY     82  64  54 S5        30.04F
FISHERS *+     SUNNY     84  70  61 W3        30.03F
FRANKFORT +    MOSUNNY   88  67  48 SW5       30.04S
INDIANAPOLIS   MOSUNNY   85  65  51 S7        30.03F
-EAGLE CREEK   SUNNY     86  65  49 S5        30.02F
KOKOMO +       SUNNY     85  65  51 SW7       30.03F
MT COMFORT *+  SUNNY     84  66  54 SW6       30.04S
SHELBYVILLE    SUNNY     86  65  49 W3        30.03F
ZIONSVILLE +   SUNNY     83  65  56 SW7       30.04F

$$

INZ033-034-041-042-049-050-058-059-261700-
EAST CENTRAL INDIANA

CITY           SKY/WX    TMP DP  RH WIND       PRES   REMARKS
MUNCIE         SUNNY     87  64  46 SW5       30.04S
RICHMOND +     SUNNY     81  63  54 NW3       30.07F

$$

INZ060-061-067>069-081>083-085>088-261700-
SOUTHWEST INDIANA

CITY           SKY/WX    TMP DP  RH WIND       PRES   REMARKS
EVANSVILLE     SUNNY     84  65  52 CALM      30.03R
HUNTINGBURG +  SUNNY     83  67  58 CALM      30.03S
WASHINGTON +   SUNNY     86  62  44 SW6       30.02S

$$

INZ062-063-066-070>080-084-089>092-261700-
SOUTH CENTRAL AND SOUTHEAST INDIANA

CITY           SKY/WX    TMP DP  RH WIND       PRES   REMARKS
BEDFORD +      SUNNY     84  64  51 CALM      30.03F
BLOOMINGTON    SUNNY     86  61  42 S6        30.03F
MADISON *+     SUNNY     82  61  47 CALM      30.07S
NORTH VERNON + SUNNY     84  63  48 CALM      30.05S
SEYMOUR +      SUNNY     86  63  45 CALM      30.03F

$$





USA.gov is the U.S. government's official web portal to all federal, state and local government web resources and services.